Regional Weather Roundup
Issued by NWS Kansas City/Pleasant Hill, MO

Home | Current Version | Previous Version | Graphics & Text | Print | Product List | Glossary Off
Versions: 1 2 3 4 5 6 7 8 9 10 11 12 13 14 15 16 17 18 19 20 21 22 23 24 25 26 27

000
ASUS43 KEAX 221010
RWREAX

WEATHER ROUNDUP FOR EASTERN KANSAS AND NORTHWEST MISSOURI
NATIONAL WEATHER SERVICE KANSAS CITY/PLEASANT HILL MO
400 AM CST MON JAN 22 2018

KSZ040-057-103>105-MOZ028-029-037-043-221100-
...KANSAS CITY METROPOLITAN AREA...

CITY           SKY/WX    TMP DP  RH WIND       PRES   REMARKS
K.C. INTL      FOG       45  45 100 SW8       29.42S VSB 1/2
K.C. DOWNTOWN  PTCLDY    50  47  89 SW14      29.42F
LEES SUMMIT    CLEAR     50  46  86 S16       29.44F
OLATHE - IXD   PTCLDY    39  38  96 SW15      29.46S WCI  31
OLATHE - OJC   MOCLDY    43  43 100 SW12      29.45S
LAWRENCE       CLEAR     40  37  89 SW14      29.45F WCI  32

$$

MOZ001>008-011>017-020>025-030>033-038>040-044>046-053-054-221100-
...NORTHERN AND CENTRAL MISSOURI...

CITY           SKY/WX    TMP DP  RH WIND       PRES   REMARKS
ST. JOSEPH     CLOUDY    44  44 100 W10       29.42S
MOSBY          MOSUNNY   52  50  93 S7        29.42F
WARRENSBURG    CLEAR     50  45  81 S10       29.46F
WHITEMAN AFB   PTCLDY    51  46  83 S15       29.43F
CLINTON        MOCLDY    50  37  62 S12G17    29.50F
SEDALIA        PTCLDY    54  50  86 S13       29.51S
WARSAW         NOT AVBL
CHILLICOTHE      N/A     53  52  96 SE7       29.45F
KIRKSVILLE     CLOUDY    52  52 100 S14       29.50R

$$

MOZ041-047>049-056>058-063>065-088>090-097-221100-
...EASTERN AND SOUTHERN MISSOURI...

CITY           SKY/WX    TMP DP  RH WIND       PRES   REMARKS
ST. LOUIS INTL RAIN      55  55 100 S10       29.63F
SPIRIT OF STL  RAIN      56  55  97 S10       29.60F
COLUMBIA       MOCLDY    53  32  44 SE10      29.52F
JEFFERSON CITY CLOUDY    54  52  93 SE8       29.55F
ROLLA          CLOUDY    53  53 100 SE9       29.60R
OSAGE BEACH    MOCLDY    53  52  96 S5        29.56F
SPRINGFIELD    CLEAR     50  44  80 SW13      29.57F
BRANSON        CLEAR     48  37  66 CALM      29.63S
JOPLIN         CLEAR     44  34  67 SW20G30   29.60R
WEST PLAINS    CLOUDY    51  50  96 SW5       29.64F

$$

IAZ060-094-KSZ022-034>040-054-083-096-NEZ052-066-093-221100-
...KANSAS...SOUTHEAST NEBRASKA AND IOWA...

CITY           SKY/WX    TMP DP  RH WIND       PRES   REMARKS
TOPEKA         CLEAR     39  37  92 W7        29.46F WCI  34
MANHATTAN      CLOUDY    37  35  92 SW6       29.47F FOG     WCI  32
EMPORIA        PTCLDY    31  29  92 SW12      29.48F WCI  22
CHANUTE        CLEAR     38  32  79 SW15      29.55S WCI  29
WICHITA        CLOUDY    38  32  79 W18G24    29.52F WCI  28
OMAHA          CLOUDY    38  34  85 N14G20    29.46S WCI  30
LINCOLN        LGT SNOW  36  34  92 N13       29.51F FOG     WCI  27
FALLS CITY     LGT RAIN  38  37  97 NW8       29.43F WCI  32
LAMONI         FOG       41  40  96 N8        29.40F VSB 1/4
DES MOINES     RAIN      39  38  96 NE15      29.47F FOG     WCI  31

$$





USA.gov is the U.S. government's official web portal to all federal, state and local government web resources and services.